Tracking 19817 objects as of 18-Aug-2019
HD Live streaming from Space Station
objects crossing your sky now

COSMOS 2251 DEB

Track COSMOS 2251 DEB now!
10-day predictions


NORAD ID: 34920
Int'l Code: 1993-036ADR
Perigee: 725.0 km
Apogee: 749.5 km
Inclination: 74.0 °
Period: 99.4 minutes
Semi major axis: 7108 km
RCS: 0.0125 m2 (small)
Launch date: June 16, 1993
Source: Commonwealth of Independent States (former USSR) (CIS)
Launch site: PLESETSK MISSILE AND SPACE COMPLEX (PKMTR)

Note: This is SATELLITE DEBRIS
aabbcc
Your satellite tracking list
Your tracking list is empty




NASA's NSSDC Master Catalog

Two Line Element Set (TLE):
1 34920U 93036ADR 19229.12714308  .00000708  00000-0  19520-3 0  9993
2 34920  74.0318 121.1198 0017200  38.3812 321.8568 14.48629517546332
Source of the keplerian elements: AFSPC